Home > Time Zones > World Clock > Weather > Italy > Parma > Past weeks

Flag for Italy Weather past 2 weeks in Parma, Italy

Now
64 °F

Sunny.


Feels Like: 64 °F
Forecast: 45 / 64 °F
Wind: 26 mph from Northwest

Location: Parma

Current Time: Oct 22, 2014 at 5:30:10 PM

Latest Report: Oct 22, 2014 at 3:50 PM


Visibility: 10 mi

Pressure: 29.83 "Hg

Humidity: 22%

Dew point: 25 °F

Location of ParmaLocation

Historic Weather in Parma — Graph

°F

Parma temperature yesterday

Maximum temperature yesterday: 73 °F (at 1:50 PM)
Minimum temperature yesterday: 59 °F (at 7:50 AM)
Average temperature yesterday: 67 °F

Past Weeks' High & Low Weather Summary

 TemperatureHumidityPressure
High75 °F (Oct 17, 2:50 PM)100% (Oct 9, 5:00 PM)30.30 "Hg (Oct 9, 5:00 PM)
Low55 °F (Oct 14, 6:50 AM)19% (Oct 22, 2:50 PM)29.59 "Hg (Oct 21, 11:50 PM)
Average65 °F87%30.01 "Hg
* Reported Oct 7 3:50 PM — Oct 22 3:50 PM, Parma, Weather by CustomWeather, © 2014

Note: Actual official high and low records may vary slightly from our data, if they occured in-between our weather recording intervals... More about our weather records

Advertising

Parma weather history for previous 24 hours

 ConditionsComfort  
Time TempWeatherWind HumidityBarometerVisibility
3:50 PM
Oct 22
64 °FSunny.26 mph22%29.83 "Hg10 mi
2:50 PM64 °FSunny.25 mph19%29.83 "Hg10 mi
1:50 PM64 °FSunny.29 mph22%29.83 "Hg10 mi
12:50 PM63 °FSunny.29 mph27%29.83 "Hg10 mi
11:50 AM63 °FPassing clouds.28 mph27%29.83 "HgN/A
10:50 AM61 °FPassing clouds.22 mph34%29.83 "HgN/A
9:50 AM59 °FPassing clouds.20 mph36%29.83 "HgN/A
8:50 AM57 °FSunny.22 mph36%29.77 "Hg10 mi
7:50 AM55 °FClear.20 mph38%29.74 "Hg10 mi
6:50 AM57 °FClear.23 mph39%29.71 "Hg10 mi
6:00 AM59 °FClear.21 mph36%29.71 "Hg10 mi
11:50 PM
Oct 21
63 °FClear.5 mph88%29.59 "Hg5 mi
10:50 PM63 °FClear.1 mph94%29.65 "Hg5 mi
9:50 PM64 °FClear.3 mph88%29.68 "Hg5 mi
8:50 PM68 °FClear.2 mph83%29.71 "Hg5 mi
7:50 PM66 °FClear.2 mph88%29.74 "Hg5 mi
6:50 PM70 °FClear.2 mph78%29.77 "Hg4 mi
5:50 PM72 °FSunny.3 mph73%29.77 "Hg10 mi
Weather by CustomWeather, © 2014

See weather overviewHow to use our weather pages